Time,TemperatureF,DewpointF,PressureIn,WindDirection,WindDirectionDegrees,WindSpeedMPH,WindSpeedGustMPH,Humidity,HourlyPrecipIn,Conditions,Clouds,dailyrainin,SolarRadiationWatts/m^2,SoftwareType,DateUTC
2013-01-11 00:03:00,33.0,32.0,-100.00,SSE,153,8.0,14.0,97,0.01,,,0.19,1.000000,,2013-01-11 06:03:00,
2013-01-11 00:33:00,33.0,32.0,-100.00,SSE,152,8.0,15.0,98,0.02,,,0.21,1.000000,,2013-01-11 06:33:00,
2013-01-11 00:42:00,33.0,32.0,-100.00,SSE,152,8.0,15.0,98,0.02,,,0.21,1.000000,,2013-01-11 06:42:00,
2013-01-11 00:52:00,33.0,32.0,-100.00,SSE,152,8.0,15.0,98,0.02,,,0.21,1.000000,,2013-01-11 06:52:00,
2013-01-11 01:02:00,33.0,32.0,-100.00,SSE,152,8.0,15.0,98,0.02,,,0.21,1.000000,,2013-01-11 07:02:00,
2013-01-11 01:32:00,33.0,32.0,-100.00,SSE,154,9.0,15.0,98,0.01,,,-99.99,1.000000,,2013-01-11 07:32:00,
2013-01-11 01:42:00,33.0,32.0,-100.00,SSE,154,9.0,15.0,98,0.01,,,-99.99,1.000000,,2013-01-11 07:42:00,
2013-01-11 01:52:00,33.0,32.0,-100.00,SSE,154,9.0,15.0,98,0.01,,,-99.99,1.000000,,2013-01-11 07:52:00,
2013-01-11 02:02:00,33.0,32.0,-100.00,SSE,154,9.0,15.0,98,0.01,,,-99.99,1.000000,,2013-01-11 08:02:00,
2013-01-11 02:32:00,33.0,33.0,-100.00,SSE,154,9.0,14.0,99,0.00,,,0.22,1.000000,,2013-01-11 08:32:00,
2013-01-11 02:42:00,33.0,33.0,-100.00,SSE,154,9.0,14.0,99,0.00,,,0.22,1.000000,,2013-01-11 08:42:00,
2013-01-11 02:53:00,33.0,33.0,-100.00,SSE,154,9.0,14.0,99,0.00,,,0.22,1.000000,,2013-01-11 08:53:00,
2013-01-11 03:02:00,33.0,33.0,-100.00,SSE,154,9.0,14.0,99,0.00,,,0.22,1.000000,,2013-01-11 09:02:00,
2013-01-11 03:32:00,34.0,34.0,-100.00,SSE,151,8.0,12.0,99,0.01,,,0.23,1.000000,,2013-01-11 09:32:00,
2013-01-11 03:42:00,34.0,34.0,-100.00,SSE,151,8.0,12.0,99,0.01,,,0.23,1.000000,,2013-01-11 09:42:00,
2013-01-11 03:52:00,34.0,34.0,-100.00,SSE,151,8.0,12.0,99,0.01,,,0.23,1.000000,,2013-01-11 09:52:00,
2013-01-11 04:02:00,34.0,34.0,-100.00,SSE,151,8.0,12.0,99,0.01,,,0.23,1.000000,,2013-01-11 10:02:00,
2013-01-11 04:32:00,34.0,34.0,-100.00,SSE,156,7.0,12.0,100,0.00,,,0.23,1.000000,,2013-01-11 10:32:00,
2013-01-11 04:43:00,34.0,34.0,-100.00,SSE,156,7.0,12.0,100,0.00,,,0.23,1.000000,,2013-01-11 10:43:00,
2013-01-11 04:52:00,34.0,34.0,-100.00,SSE,156,7.0,12.0,100,0.00,,,0.23,1.000000,,2013-01-11 10:52:00,
2013-01-11 05:03:00,34.0,34.0,-100.00,SSE,156,7.0,12.0,100,0.00,,,0.23,1.000000,,2013-01-11 11:03:00,
2013-01-11 05:33:00,34.0,34.0,-100.00,SSE,158,8.0,12.0,100,0.01,,,0.24,1.000000,,2013-01-11 11:33:00,
2013-01-11 05:43:00,34.0,34.0,-100.00,SSE,158,8.0,12.0,100,0.01,,,0.24,1.000000,,2013-01-11 11:43:00,
2013-01-11 05:53:00,34.0,34.0,-100.00,SSE,158,8.0,12.0,100,0.01,,,0.24,1.000000,,2013-01-11 11:53:00,
2013-01-11 06:03:00,34.0,34.0,-100.00,SSE,158,8.0,12.0,100,0.01,,,0.24,1.000000,,2013-01-11 12:03:00,
2013-01-11 06:33:00,34.0,34.0,-100.00,SSE,155,7.0,12.0,100,0.00,,,-99.99,1.000000,,2013-01-11 12:33:00,
2013-01-11 06:43:00,34.0,34.0,-100.00,SSE,155,7.0,12.0,100,0.00,,,-99.99,1.000000,,2013-01-11 12:43:00,
2013-01-11 06:53:00,34.0,34.0,-100.00,SSE,155,7.0,12.0,100,0.00,,,-99.99,1.000000,,2013-01-11 12:53:00,
2013-01-11 07:03:00,34.0,34.0,-100.00,SSE,155,7.0,12.0,100,0.00,,,-99.99,1.000000,,2013-01-11 13:03:00,
2013-01-11 07:33:00,34.0,34.0,-100.00,SSE,159,7.0,11.0,100,0.00,,,-99.99,1.000000,,2013-01-11 13:33:00,
2013-01-11 07:43:00,34.0,34.0,-100.00,SSE,159,7.0,11.0,100,0.00,,,-99.99,1.000000,,2013-01-11 13:43:00,
2013-01-11 07:53:00,34.0,34.0,-100.00,SSE,159,7.0,11.0,100,0.00,,,-99.99,1.000000,,2013-01-11 13:53:00,
2013-01-11 08:03:00,34.0,34.0,-100.00,SSE,159,7.0,11.0,100,0.00,,,-99.99,1.000000,,2013-01-11 14:03:00,
2013-01-11 08:33:00,34.0,34.0,-100.00,SSE,153,6.0,9.0,100,0.00,,,0.24,3.000000,,2013-01-11 14:33:00,
2013-01-11 08:43:00,34.0,34.0,-100.00,SSE,153,6.0,9.0,100,0.00,,,0.24,3.000000,,2013-01-11 14:43:00,
2013-01-11 08:53:00,34.0,34.0,-100.00,SSE,153,6.0,9.0,100,0.00,,,0.24,3.000000,,2013-01-11 14:53:00,
2013-01-11 09:03:00,34.0,34.0,-100.00,SSE,153,6.0,9.0,100,0.00,,,0.24,3.000000,,2013-01-11 15:03:00,
2013-01-11 09:33:00,35.0,35.0,-100.00,SSE,150,6.0,10.0,100,0.00,,,0.24,29.000000,,2013-01-11 15:33:00,
2013-01-11 09:43:00,35.0,35.0,-100.00,SSE,150,6.0,10.0,100,0.00,,,0.24,29.000000,,2013-01-11 15:43:00,
2013-01-11 09:53:00,35.0,35.0,-100.00,SSE,150,6.0,10.0,100,0.00,,,0.24,29.000000,,2013-01-11 15:53:00,
2013-01-11 10:03:00,35.0,35.0,-100.00,SSE,150,6.0,10.0,100,0.00,,,0.24,29.000000,,2013-01-11 16:03:00,
2013-01-11 10:33:00,35.0,35.0,-100.00,SSE,149,5.0,9.0,100,0.00,,,0.24,47.000000,,2013-01-11 16:33:00,
2013-01-11 10:43:00,35.0,35.0,-100.00,SSE,149,5.0,9.0,100,0.00,,,0.24,47.000000,,2013-01-11 16:43:00,
2013-01-11 10:53:00,35.0,35.0,-100.00,SSE,149,5.0,9.0,100,0.00,,,0.24,47.000000,,2013-01-11 16:53:00,
2013-01-11 11:03:00,35.0,35.0,-100.00,SSE,149,5.0,9.0,100,0.00,,,0.24,47.000000,,2013-01-11 17:03:00,
2013-01-11 11:33:00,36.0,36.0,-100.00,SSE,151,5.0,9.0,100,0.00,,,0.24,65.000000,,2013-01-11 17:33:00,
2013-01-11 11:43:00,36.0,36.0,-100.00,SSE,151,5.0,9.0,100,0.00,,,0.24,65.000000,,2013-01-11 17:43:00,
2013-01-11 11:53:00,36.0,36.0,-100.00,SSE,151,5.0,9.0,100,0.00,,,0.24,65.000000,,2013-01-11 17:53:00,
2013-01-11 12:03:00,36.0,36.0,-100.00,SSE,151,5.0,9.0,100,0.00,,,0.24,65.000000,,2013-01-11 18:03:00,
2013-01-11 12:33:00,36.0,36.0,-100.00,SE,138,5.0,10.0,100,0.00,,,0.24,90.000000,,2013-01-11 18:33:00,
2013-01-11 12:43:00,36.0,36.0,-100.00,SE,138,5.0,10.0,100,0.00,,,0.24,90.000000,,2013-01-11 18:43:00,
2013-01-11 12:53:00,36.0,36.0,-100.00,SE,138,5.0,10.0,100,0.00,,,0.24,90.000000,,2013-01-11 18:53:00,
2013-01-11 13:02:00,36.0,36.0,-100.00,SE,138,5.0,10.0,100,0.00,,,0.24,90.000000,,2013-01-11 19:02:00,
2013-01-11 13:33:00,36.0,36.0,-100.00,SE,138,5.0,9.0,100,0.00,,,0.24,84.000000,,2013-01-11 19:33:00,
2013-01-11 13:43:00,36.0,36.0,-100.00,SE,138,5.0,9.0,100,0.00,,,0.24,84.000000,,2013-01-11 19:43:00,
2013-01-11 13:53:00,36.0,36.0,-100.00,SE,138,5.0,9.0,100,0.00,,,0.24,84.000000,,2013-01-11 19:53:00,
2013-01-11 14:03:00,36.0,36.0,-100.00,SE,138,5.0,9.0,100,0.00,,,0.24,84.000000,,2013-01-11 20:03:00,
2013-01-11 14:33:00,37.0,37.0,-100.00,SSE,148,4.0,10.0,100,0.00,,,0.24,73.000000,,2013-01-11 20:33:00,
2013-01-11 14:43:00,37.0,37.0,-100.00,SSE,148,4.0,10.0,100,0.00,,,0.24,73.000000,,2013-01-11 20:43:00,
2013-01-11 14:53:00,37.0,37.0,-100.00,SSE,148,4.0,10.0,100,0.00,,,0.24,73.000000,,2013-01-11 20:53:00,
2013-01-11 15:03:00,37.0,37.0,-100.00,SSE,148,4.0,10.0,100,0.00,,,0.24,73.000000,,2013-01-11 21:03:00,
2013-01-11 15:33:00,37.0,37.0,-100.00,SE,135,5.0,7.0,100,0.00,,,0.24,58.000000,,2013-01-11 21:33:00,
2013-01-11 15:43:00,37.0,37.0,-100.00,SE,135,5.0,7.0,100,0.00,,,0.24,58.000000,,2013-01-11 21:43:00,
2013-01-11 15:53:00,37.0,37.0,-100.00,SE,135,5.0,7.0,100,0.00,,,0.24,58.000000,,2013-01-11 21:53:00,
2013-01-11 16:02:00,37.0,37.0,-100.00,SE,135,5.0,7.0,100,0.00,,,0.24,58.000000,,2013-01-11 22:02:00,
2013-01-11 16:33:00,37.0,37.0,-100.00,SE,144,6.0,10.0,100,0.00,,,0.24,29.000000,,2013-01-11 22:33:00,
2013-01-11 16:42:00,37.0,37.0,-100.00,SE,144,6.0,10.0,100,0.00,,,0.24,29.000000,,2013-01-11 22:42:00,
2013-01-11 16:53:00,37.0,37.0,-100.00,SE,144,6.0,10.0,100,0.00,,,0.24,29.000000,,2013-01-11 22:53:00,
2013-01-11 17:02:00,37.0,37.0,-100.00,SE,144,6.0,10.0,100,0.00,,,0.24,29.000000,,2013-01-11 23:02:00,
2013-01-11 17:33:00,36.0,36.0,-100.00,SE,136,6.0,10.0,100,0.01,,,0.25,6.000000,,2013-01-11 23:33:00,
2013-01-11 17:43:00,36.0,36.0,-100.00,SE,136,6.0,10.0,100,0.01,,,0.25,6.000000,,2013-01-11 23:43:00,
2013-01-11 17:53:00,36.0,36.0,-100.00,SE,136,6.0,10.0,100,0.01,,,0.25,6.000000,,2013-01-11 23:53:00,
2013-01-11 18:02:00,36.0,36.0,-100.00,SE,136,6.0,10.0,100,0.01,,,0.25,6.000000,,2013-01-12 00:02:00,
2013-01-11 18:33:00,36.0,36.0,-100.00,ESE,120,4.0,10.0,100,0.00,,,0.25,1.000000,,2013-01-12 00:33:00,
2013-01-11 18:43:00,36.0,36.0,-100.00,ESE,120,4.0,10.0,100,0.00,,,0.25,1.000000,,2013-01-12 00:43:00,
2013-01-11 18:53:00,36.0,36.0,-100.00,ESE,120,4.0,10.0,100,0.00,,,0.25,1.000000,,2013-01-12 00:53:00,
2013-01-11 19:02:00,36.0,36.0,-100.00,ESE,120,4.0,10.0,100,0.00,,,0.25,1.000000,,2013-01-12 01:02:00,
2013-01-11 19:33:00,36.0,36.0,-100.00,SE,128,7.0,11.0,100,0.01,,,0.23,1.000000,,2013-01-12 01:33:00,
2013-01-11 19:43:00,36.0,36.0,-100.00,SE,128,7.0,11.0,100,0.01,,,0.23,1.000000,,2013-01-12 01:43:00,
2013-01-11 19:52:00,36.0,36.0,-100.00,SE,128,7.0,11.0,100,0.01,,,0.23,1.000000,,2013-01-12 01:52:00,
2013-01-11 20:02:00,36.0,36.0,-100.00,SE,128,7.0,11.0,100,0.01,,,0.23,1.000000,,2013-01-12 02:02:00,
2013-01-11 20:33:00,37.0,37.0,-100.00,SSE,154,6.0,10.0,100,0.01,,,0.16,1.000000,,2013-01-12 02:33:00,
2013-01-11 20:43:00,37.0,37.0,-100.00,SSE,154,6.0,10.0,100,0.01,,,0.16,1.000000,,2013-01-12 02:43:00,
2013-01-11 20:53:00,37.0,37.0,-100.00,SSE,154,6.0,10.0,100,0.01,,,0.16,1.000000,,2013-01-12 02:53:00,
2013-01-11 21:02:00,37.0,37.0,-100.00,SSE,154,6.0,10.0,100,0.01,,,0.16,1.000000,,2013-01-12 03:02:00,
2013-01-11 21:33:00,37.0,37.0,-100.00,SSE,154,8.0,12.0,100,0.00,,,0.12,1.000000,,2013-01-12 03:33:00,
2013-01-11 21:43:00,37.0,37.0,-100.00,SSE,154,8.0,12.0,100,0.00,,,0.12,1.000000,,2013-01-12 03:43:00,
2013-01-11 21:53:00,37.0,37.0,-100.00,SSE,154,8.0,12.0,100,0.00,,,0.12,1.000000,,2013-01-12 03:53:00,
2013-01-11 22:02:00,37.0,37.0,-100.00,SSE,154,8.0,12.0,100,0.00,,,0.12,1.000000,,2013-01-12 04:02:00,
2013-01-11 22:33:00,38.0,38.0,-100.00,SSE,153,8.0,13.0,100,0.01,,,0.10,1.000000,,2013-01-12 04:33:00,
2013-01-11 22:43:00,38.0,38.0,-100.00,SSE,153,8.0,13.0,100,0.01,,,0.10,1.000000,,2013-01-12 04:43:00,
2013-01-11 22:52:00,38.0,38.0,-100.00,SSE,153,8.0,13.0,100,0.01,,,0.10,1.000000,,2013-01-12 04:52:00,
2013-01-11 23:03:00,38.0,38.0,-100.00,SSE,153,8.0,13.0,100,0.01,,,0.10,1.000000,,2013-01-12 05:03:00,
2013-01-11 23:32:00,37.0,37.0,-100.00,SSE,168,8.0,14.0,100,0.00,,,0.09,1.000000,,2013-01-12 05:32:00,
2013-01-11 23:42:00,37.0,37.0,-100.00,SSE,168,8.0,14.0,100,0.00,,,0.09,1.000000,,2013-01-12 05:42:00,
2013-01-11 23:52:00,37.0,37.0,-100.00,SSE,168,8.0,14.0,100,0.00,,,0.09,1.000000,,2013-01-12 05:52:00,